Wind_Speed
7 8 9 10 11 13 13 14 12 14 14 14 11 10 8 7 5 4 4 4 2 3 4 6 7 8 8 6 7 7 8 6 9 11 14 14 15 14 12 6 5 8 3 20
4 5 6 8 8 9 10 9 10 10 13 12 13 12 11 8 8 5 2 0 2 5 6 5 7 7 7 8 8 5 5 6 4 6 8 12 15 13 16 18 17 17 5 12
7 6 6 6 6 6 7 8 6 7 8 10 10 12 12 12 11 8 6 7 8 7 8 8 7 10 9 10 10 10 11 14 14 13 8 10 14 19 18 18 14 19 34 41
11 10 10 10 9 9 9 9 8 9 9 10 9 10 11 12 13 12 12 10 9 9 9 10 13 14 14 15 14 15 15 20 20 23 24 27 28 27 28 32 37 26 42 34
18 17 16 15 14 14 13 12 13 12 13 10 11 11 12 13 14 15 17 16 17 15 15 15 17 18 18 19 18 17 19 20 22 28 28 28 30 33 36 40 43 44 47 47
23 22 21 20 19 19 17 17 16 15 15 14 13 14 14 15 17 18 19 20 22 21 18 20 21 22 24 24 23 21 22 22 15 13 20 19 17 35 29 31 33 35 38 24
27 26 25 24 23 22 21 19 19 19 21 19 18 17 15 18 20 24 26 26 25 25 23 22 24 26 27 28 29 29 29 26 15 15 13 9 18 17 23 28 30 26 28 30
30 28 28 27 25 24 24 24 23 23 25 25 24 22 24 28 31 31 30 29 27 26 25 24 17 18 24 28 28 32 32 27 13 9 16 27 33 21 23 31 31 25 32 30
32 32 31 29 28 27 26 26 27 29 30 30 28 29 32 35 33 32 31 28 27 25 24 22 10 11 14 10 8 12 24 30 22 10 9 8 13 12 14 21 32 23 18 20
36 36 36 36 35 35 34 34 34 34 37 38 35 36 37 35 33 32 32 28 26 24 24 22 15 20 19 15 19 18 20 24 32 28 19 23 21 21 25 18 26 18 19 22
43 43 43 43 44 43 44 43 42 41 43 43 39 38 35 35 32 31 29 27 26 26 25 20 19 20 21 24 23 23 23 18 17 18 14 16 20 17 19 17 21 31 40 36
37 37 37 37 38 38 38 38 35 36 38 39 32 29 27 29 28 30 34 30 22 17 19 18 16 17 19 22 26 24 24 29 25 22 20 24 30 34 40 47 49 49 43 43
32 31 31 31 31 30 29 28 28 31 34 35 32 31 32 37 36 34 36 35 33 36 36 37 30 30 24 28 30 27 29 29 36 37 43 38 42 43 49 48 47 50 55 56
27 28 29 30 30 29 28 27 27 27 30 38 39 32 32 29 30 28 23 22 27 31 30 30 38 35 26 32 36 36 31 33 35 45 46 43 44 34 31 36 41 44 46 45
28 29 29 28 28 28 28 28 28 28 27 33 35 36 33 35 34 37 39 36 30 35 39 42 42 42 37 43 43 50 42 43 42 47 40 38 39 36 38 44 46 47 41 41
28 29 30 30 31 31 28 30 30 27 28 34 41 35 31 31 33 33 33 36 40 37 32 35 34 36 37 35 41 36 27 26 28 31 36 34 41 48 53 51 46 45 47 47
29 28 28 29 29 29 27 27 26 26 25 24 25 26 13 7 11 18 14 10 16 20 25 31 33 34 33 37 38 46 45 46 43 47 50 43 42 40 41 45 48 44 42 43
24 24 23 23 23 24 22 23 25 23 23 21 15 18 17 18 18 21 23 29 32 30 25 29 29 28 27 25 29 32 39 42 40 37 37 29 31 35 33 31 35 31 26 28
21 20 20 20 19 18 14 17 18 19 18 11 15 18 15 13 9 10 14 19 25 28 34 36 26 21 18 21 22 20 21 18 16 20 17 14 18 20 24 21 21 21 19 20
19 19 18 14 8 10 14 15 16 16 17 21 26 26 25 25 25 14 8 9 8 10 14 13 17 21 26 23 7 14 22 18 25 22 26 27 27 23 19 20 22 21 22 24
16 16 13 14 13 13 10 6 6 6 5 8 7 6 6 4 7 8 7 7 9 10 12 11 13 11 14 18 25 25 21 13 14 17 18 21 24 24 25 28 27 25 25 27
15 16 15 15 11 6 6 6 6 6 7 7 4 1 2 6 8 5 4 7 5 6 9 11 8 13 14 14 18 18 20 20 22 26 28 29 30 32 33 34 35 33 32 33
14 13 9 6 4 6 5 5 4 2 2 5 7 9 10 9 7 6 6 6 10 15 16 16 13 16 16 15 14 16 21 25 28 30 30 32 34 36 38 39 37 37 38 38
11 8 6 6 3 3 5 6 3 7 10 12 14 14 11 12 11 6 7 13 15 12 14 19 13 13 15 19 23 25 29 32 35 38 39 40 38 37 37 38 38 39 40 41
9 6 4 6 6 4 3 8 12 15 18 19 19 19 17 12 8 7 10 8 8 7 10 14 17 20 27 33 35 38 39 40 40 40 41 40 38 38 39 39 39 40 42 43
9 9 6 5 6 10 11 12 13 14 15 16 16 15 9 10 6 7 9 11 15 17 24 25 32 36 37 36 37 38 39 40 41 42 42 43 44 45 45 44 43 40 38 39
8 9 11 9 12 13 12 13 13 14 15 14 11 6 5 6 8 14 16 22 25 29 32 34 36 38 39 40 41 42 44 44 44 43 42 40 38 38 38 39 35 35 35 34
Wind_Direction
38 33 47 52 51 46 47 47 51 48 54 53 51 58 66 84 91 60 26 338 319 267 268 272 253 244 235 228 227 234 235 251 256 253 266 257 247 240 231 218 220 229 253 276
360 11 15 25 35 42 45 51 50 42 37 35 36 37 29 22 14 357 345 264 296 300 287 275 252 258 260 255 254 251 227 242 258 281 271 254 250 256 247 238 250 245 232 261
291 303 308 322 337 340 352 0 5 8 14 15 17 14 6 3 353 341 329 314 303 288 280 274 269 283 285 288 271 258 257 249 239 273 291 273 270 273 263 242 237 245 251 275
277 284 291 297 303 309 313 325 324 332 329 338 341 345 347 344 337 330 325 315 306 294 280 279 270 270 273 275 275 269 264 266 269 275 274 274 274 269 268 253 267 242 280 269
282 283 283 287 292 296 301 303 307 305 306 309 312 319 324 325 324 318 312 305 300 290 281 277 275 276 276 274 269 263 262 266 274 278 284 277 271 277 269 265 270 261 272 277
278 281 286 287 287 288 290 293 295 294 295 297 296 301 308 315 314 315 311 301 293 286 284 277 276 276 276 271 273 269 267 268 283 274 281 285 273 281 274 275 273 270 260 294
282 284 284 285 287 287 286 285 286 288 289 291 291 290 291 303 299 295 295 287 282 284 282 279 276 276 276 271 268 267 264 266 253 276 284 254 276 266 262 270 275 271 280 297
277 280 283 284 282 279 279 279 278 281 283 285 284 282 287 297 296 289 284 278 278 278 278 283 287 285 281 277 270 262 254 250 254 250 250 275 287 279 266 273 280 290 294 299
277 278 278 277 276 274 272 273 277 279 279 276 278 278 284 288 282 280 276 273 274 276 272 269 247 250 269 261 256 242 245 240 230 243 258 265 284 289 289 290 289 295 283 303
273 275 277 277 275 274 271 272 272 273 273 272 272 273 278 279 275 275 278 275 270 270 267 258 255 256 257 248 254 260 241 237 232 234 250 270 274 284 285 272 287 289 302 308
270 272 273 273 273 272 272 271 271 270 269 270 271 271 271 268 266 267 271 274 273 268 255 252 256 258 262 259 256 260 256 243 225 227 237 272 282 288 274 282 283 289 295 303
268 269 269 269 269 271 272 271 268 270 270 269 269 266 267 266 263 262 262 259 251 257 257 252 254 254 264 267 267 268 257 256 259 241 257 272 278 284 291 290 287 285 288 298
265 268 269 270 271 272 271 274 276 271 276 276 273 269 264 258 260 258 262 268 269 267 261 261 262 263 269 267 269 273 268 272 265 267 267 274 280 284 287 288 282 285 285 289
269 271 271 272 272 272 270 269 270 274 276 281 280 273 263 260 263 262 253 279 266 259 259 260 271 267 267 269 269 267 269 269 273 273 276 283 289 294 293 287 282 283 286 290
271 271 271 272 273 274 274 272 269 264 262 269 273 276 271 278 276 269 274 275 265 260 263 268 274 275 274 280 281 276 288 288 279 279 289 282 289 285 280 281 287 290 290 291
275 275 275 275 274 275 276 278 270 267 264 265 272 283 283 280 277 269 262 259 262 260 258 264 268 268 279 282 280 293 278 261 266 279 276 275 284 286 285 286 284 283 280 279
280 277 276 277 276 274 271 268 273 272 271 266 278 287 283 255 249 244 237 239 285 279 273 268 269 270 276 272 269 278 276 282 279 277 286 288 289 291 292 292 279 279 283 282
285 287 287 286 284 281 274 267 265 264 261 255 258 261 266 266 246 255 261 274 278 271 269 270 273 274 271 266 251 264 280 287 289 290 295 295 293 296 285 284 286 286 278 270
287 289 292 292 290 285 276 269 262 261 252 239 243 258 270 269 261 240 256 261 268 272 267 270 275 274 244 246 264 278 293 320 328 339 337 323 341 344 350 343 347 344 342 343
291 292 294 302 289 286 280 274 267 254 244 239 249 257 263 275 284 290 287 286 264 263 271 273 260 254 252 237 298 350 358 335 343 330 351 340 341 344 343 342 342 333 329 326
294 300 298 287 285 286 279 240 231 223 219 244 268 266 244 273 276 291 292 275 277 270 266 253 251 255 235 309 326 335 336 333 330 329 326 325 326 327 325 325 322 314 307 302
279 290 298 301 284 236 218 216 211 206 216 217 201 309 356 333 325 318 307 289 271 268 274 314 280 288 299 305 317 322 319 317 316 317 317 318 317 316 315 313 313 311 308 306
279 294 315 294 253 214 214 208 227 203 23 325 334 343 336 337 317 300 279 267 263 280 280 276 283 295 281 288 300 295 301 300 304 308 311 310 310 310 306 304 305 303 301 302
279 295 269 256 232 230 223 222 313 315 322 324 328 329 314 304 294 271 268 275 281 263 264 277 279 279 268 297 300 306 307 307 306 306 307 306 305 301 297 296 296 296 296 297
274 253 249 251 244 261 240 322 312 306 304 307 312 313 314 300 258 259 267 260 248 259 280 300 299 310 312 312 308 305 304 306 306 305 304 303 302 300 298 297 296 296 297 296
254 238 236 253 222 298 303 301 301 299 301 306 305 299 286 275 243 236 240 246 264 282 297 307 299 298 307 306 305 304 305 303 302 303 304 304 304 304 303 301 298 297 294 295
252 269 284 265 269 271 269 284 283 282 290 293 292 260 256 270 262 266 269 276 289 295 294 292 296 302 306 305 303 303 303 303 304 304 304 304 304 304 303 304 303 300 298 295
Height
3141 3139 3136 3134 3133 3132 3131 3129 3128 3127 3125 3125 3122 3122 3122 3121 3120 3120 3121 3121 3120 3120 3119 3119 3120 3119 3118 3118 3118 3118 3118 3117 3116 3115 3113 3112 3112 3111 3111 3113 3112 3109 3107 3091
3140 3139 3139 3138 3136 3134 3133 3132 3130 3129 3127 3126 3125 3123 3123 3122 3121 3121 3120 3119 3120 3120 3120 3121 3118 3117 3116 3116 3116 3115 3116 3115 3115 3111 3111 3107 3105 3105 3106 3108 3107 3102 3104 3087
3139 3138 3138 3137 3136 3136 3135 3134 3132 3131 3129 3127 3125 3124 3123 3121 3120 3119 3119 3119 3118 3117 3117 3116 3115 3114 3115 3114 3113 3113 3112 3110 3110 3107 3106 3104 3102 3101 3101 3101 3099 3093 3084 3080
3136 3135 3136 3135 3135 3134 3134 3132 3131 3130 3128 3126 3125 3124 3123 3121 3120 3119 3118 3117 3117 3116 3115 3114 3112 3111 3110 3110 3109 3109 3108 3105 3104 3102 3101 3099 3097 3096 3093 3089 3086 3084 3073 3073
3132 3132 3132 3131 3131 3130 3131 3130 3129 3126 3125 3124 3123 3122 3121 3120 3119 3118 3116 3115 3113 3113 3112 3112 3110 3108 3107 3105 3103 3103 3102 3099 3095 3092 3092 3090 3087 3087 3084 3080 3077 3073 3069 3067
3127 3127 3127 3126 3126 3126 3125 3125 3125 3123 3122 3121 3120 3118 3117 3116 3115 3114 3113 3112 3110 3108 3108 3106 3104 3103 3102 3101 3099 3098 3097 3095 3094 3088 3085 3082 3078 3070 3069 3066 3064 3063 3062 3060
3121 3121 3121 3121 3121 3121 3121 3120 3119 3118 3116 3115 3115 3114 3112 3110 3109 3108 3107 3104 3102 3102 3100 3099 3097 3095 3094 3092 3091 3091 3090 3091 3091 3084 3085 3074 3063 3062 3061 3058 3056 3057 3054 3055
3112 3113 3113 3114 3114 3114 3114 3113 3113 3111 3109 3110 3109 3108 3106 3104 3103 3101 3099 3097 3097 3095 3094 3092 3089 3086 3083 3080 3080 3080 3081 3083 3084 3081 3075 3060 3059 3059 3058 3054 3049 3053 3048 3048
3106 3105 3105 3105 3105 3106 3106 3106 3105 3104 3102 3101 3102 3101 3099 3097 3095 3093 3092 3091 3090 3089 3088 3086 3082 3080 3078 3074 3070 3070 3071 3074 3080 3077 3072 3056 3052 3053 3053 3050 3042 3047 3045 3043
3097 3097 3097 3097 3097 3097 3097 3096 3096 3095 3092 3090 3092 3091 3090 3089 3088 3086 3083 3084 3083 3083 3081 3080 3078 3072 3072 3066 3064 3062 3064 3064 3064 3066 3062 3045 3049 3048 3049 3049 3044 3041 3039 3038
3085 3086 3086 3086 3085 3086 3084 3085 3084 3084 3079 3079 3080 3079 3080 3077 3079 3078 3075 3078 3075 3074 3074 3072 3069 3064 3065 3059 3060 3056 3058 3057 3054 3056 3054 3044 3043 3042 3043 3040 3036 3032 3031 3029
3072 3073 3073 3073 3073 3073 3071 3072 3073 3070 3069 3068 3069 3069 3070 3068 3068 3069 3065 3069 3069 3067 3066 3064 3061 3058 3054 3054 3053 3054 3053 3050 3052 3046 3040 3039 3036 3035 3034 3030 3026 3025 3021 3018
3063 3063 3063 3063 3063 3063 3062 3062 3063 3061 3058 3057 3057 3058 3058 3057 3058 3058 3057 3058 3061 3057 3058 3056 3054 3051 3051 3047 3044 3046 3044 3044 3039 3037 3031 3032 3029 3028 3024 3022 3017 3012 3009 3007
3054 3054 3054 3055 3055 3055 3055 3055 3055 3055 3053 3047 3047 3049 3050 3049 3049 3050 3048 3050 3049 3049 3048 3044 3042 3042 3041 3038 3035 3035 3040 3036 3030 3020 3019 3020 3015 3017 3014 3009 3005 3001 2998 2996
3048 3047 3047 3046 3046 3046 3046 3046 3047 3047 3050 3041 3038 3041 3044 3041 3042 3042 3041 3039 3039 3038 3036 3034 3031 3030 3031 3027 3027 3019 3028 3023 3019 3008 3011 3008 3003 3004 3000 2994 2992 2989 2986 2984
3039 3038 3038 3038 3037 3038 3038 3037 3038 3038 3038 3035 3029 3025 3029 3031 3030 3030 3030 3028 3026 3027 3027 3024 3021 3023 3025 3020 3015 3018 3015 3010 3003 2999 2999 2998 2992 2990 2987 2983 2980 2977 2973 2970
3031 3030 3029 3029 3028 3028 3029 3030 3028 3027 3029 3028 3023 3018 3017 3018 3019 3018 3019 3018 3018 3018 3017 3015 3015 3015 3017 3011 3008 2999 2999 2997 2995 2991 2991 2987 2980 2977 2975 2972 2968 2963 2961 2958
3024 3023 3022 3021 3021 3020 3020 3019 3018 3019 3021 3023 3020 3014 3014 3015 3015 3015 3014 3012 3010 3009 3008 3006 3006 3007 3006 3002 2994 2993 2990 2988 2984 2980 2978 2976 2971 2969 2965 2963 2959 2955 2953 2950
3018 3016 3015 3015 3013 3013 3012 3013 3012 3012 3016 3014 3011 3010 3012 3007 3006 3007 3008 3007 3005 3005 3002 3000 3001 2998 2994 2989 2988 2987 2986 2984 2980 2977 2974 2971 2969 2965 2964 2960 2957 2954 2950 2947
3012 3012 3010 3009 3010 3008 3009 3007 3007 3007 3006 3006 3004 3005 3006 3007 3003 3001 3003 2999 2999 2998 2997 2995 2992 2991 2987 2986 2986 2984 2982 2981 2978 2975 2973 2970 2965 2964 2962 2957 2954 2951 2948 2945
3008 3007 3006 3007 3005 3004 3003 3003 3005 3005 3002 3002 3001 3000 2998 3001 3001 2999 2998 2996 2996 2993 2993 2991 2987 2984 2984 2983 2982 2980 2978 2976 2974 2972 2970 2967 2962 2959 2956 2952 2950 2947 2942 2939
3005 3004 3002 3002 2999 2999 3000 3000 3001 3000 3000 2998 2997 2996 2995 2998 2999 2996 2994 2994 2994 2990 2986 2986 2983 2983 2981 2980 2979 2976 2974 2972 2969 2966 2963 2960 2957 2953 2949 2945 2941 2938 2935 2931
3002 3001 2998 2999 2997 2997 2996 2995 2997 2997 2994 2995 2994 2994 2995 2994 2996 2994 2993 2991 2990 2988 2984 2982 2981 2978 2976 2975 2974 2972 2970 2966 2963 2960 2957 2953 2949 2946 2942 2936 2933 2928 2924 2920
3000 2999 2997 2999 2992 2993 2995 2995 2995 2994 2992 2993 2993 2993 2993 2992 2993 2990 2987 2988 2986 2982 2979 2977 2974 2973 2971 2970 2968 2965 2963 2960 2957 2953 2949 2944 2940 2935 2932 2927 2923 2917 2913 2909
2998 2997 2993 2992 2993 2994 2993 2993 2993 2991 2991 2990 2990 2989 2989 2988 2987 2985 2984 2983 2979 2976 2975 2973 2969 2967 2965 2963 2961 2957 2954 2951 2946 2941 2937 2932 2928 2924 2919 2916 2912 2907 2902 2898
2995 2992 2990 2992 2992 2993 2992 2989 2989 2987 2988 2988 2987 2986 2985 2983 2982 2980 2978 2976 2974 2973 2969 2966 2963 2961 2959 2956 2952 2948 2944 2939 2934 2929 2925 2920 2916 2911 2906 2901 2898 2894 2889 2884
2988 2987 2989 2990 2990 2988 2988 2987 2986 2985 2985 2984 2984 2982 2982 2980 2977 2975 2974 2972 2970 2967 2963 2959 2957 2954 2950 2946 2941 2937 2932 2927 2922 2918 2913 2908 2904 2899 2895 2890 2887 2883 2879 2874